Torna al catalogo

COSMOS 1763

AttivoMilitareLEO
NORAD 16860·PAYLOAD·🇷🇺 Russia

Lanciato Jul 16, 1986 da Plesetsk Cosmodrome

Loading…

Prossimi Passaggi (prossime 24 ore)

TLE

AggiornatoSource: Space-Track

Epoca: Sep 13, 2026, 22:04 UTC

1 16860U 86052A   26256.91983094  .00000091  00000-0  37428-4 0  9994
2 16860  74.0332  42.6293 0030032  26.6256 333.6432 14.39347491106571

Traccia COSMOS 1763 in tempo reale con AllMySat

Download on the App Store